Location: Veytaux
(46.4185°N, 6.9320°E)
Time: 08:49:05
(UTC+00:00)

GP-B - Pass Details

Date: 27 May 2022
Orbit: 630 x 634 km, 89.8° (Epoch: 01 July)

Event Time Altitude Azimuth Distance (km) Brightness Sun altitude
Rises 01:11:59 0° 354° (N) 2,940 7.5 -18.4°
Reaches altitude 10° 01:14:19 10° 346° (NNW) 2,026 6.4 -18.3°
Maximum altitude 01:18:25 38° 279° (W) 976 3.9 -18.0°
Enters shadow 01:19:43 31° 242° (WSW) 1,124 3.9 -17.9°
